| time (UTC) | temp F | wind direction | speed MPH | gust MPH | rain 1hr in | rain 24hr in | rain mn in | humidity % | barometer mb |
| 20260508025510 | 55 | 310 | 0.0 | 2.0 | 0.04 | 1.16 | 1.16 | 90 | 1013.1 |
| 20260508025009 | 55 | 335 | 0.0 | 2.0 | 0.04 | 1.16 | 1.16 | 90 | 1013.0 |
| 20260508024527 | 55 | 344 | 0.0 | 2.0 | 0.07 | 1.16 | 1.16 | 89 | 1013.0 |
| 20260508024008 | 56 | 113 | 0.0 | 3.0 | 0.13 | 1.16 | 1.16 | 89 | 1013.2 |
| 20260508023507 | 56 | 113 | 0.0 | 3.0 | 0.20 | 1.16 | 1.16 | 89 | 1013.0 |
| 20260508023016 | 56 | 9 | 1.0 | 3.0 | 0.20 | 1.16 | 1.16 | 89 | 1012.7 |
| 20260508022504 | 56 | 25 | 0.0 | 2.0 | 0.19 | 1.16 | 1.16 | 88 | 1012.8 |
| 20260508022006 | 56 | 14 | 0.0 | 2.0 | 0.17 | 1.14 | 1.14 | 88 | 1012.9 |
| 20260508021006 | 56 | 287 | 0.0 | 2.0 | 0.16 | 1.13 | 1.13 | 87 | 1012.6 |
| 20260508020503 | 56 | 345 | 0.0 | 2.0 | 0.16 | 1.13 | 1.13 | 87 | 1012.4 |
| 20260508020011 | 56 | 296 | 0.0 | 2.0 | 0.16 | 1.13 | 1.13 | 87 | 1012.4 |
| 20260508015503 | 56 | 114 | 0.0 | 3.0 | 0.16 | 1.13 | 1.13 | 87 | 1012.5 |
| 20260508015003 | 57 | 276 | 0.0 | 5.0 | 0.16 | 1.13 | 1.13 | 86 | 1012.3 |
| 20260508014511 | 57 | 227 | 0.0 | 10.0 | 0.13 | 1.10 | 1.10 | 86 | 1011.9 |
| 20260508014004 | 57 | 303 | 3.0 | 10.0 | 0.07 | 1.04 | 1.04 | 85 | 1011.3 |
| 20260508013507 | 57 | 246 | 1.0 | 6.0 | 0.00 | 0.97 | 0.97 | 84 | 1013.4 |
| 20260508012507 | 57 | 44 | 2.0 | 8.0 | 0.00 | 0.97 | 0.97 | 83 | 1010.9 |
| 20260508012007 | 58 | 5 | 2.0 | 6.0 | 0.00 | 0.97 | 0.97 | 84 | 1011.1 |
| 20260508011007 | 58 | 294 | 1.0 | 12.0 | 0.00 | 0.97 | 0.97 | 84 | 1011.0 |
| 20260508010506 | 58 | 297 | 1.0 | 5.0 | 0.00 | 0.97 | 0.97 | 84 | 1011.1 |
| 20260508010004 | 58 | 302 | 1.0 | 12.0 | 0.00 | 0.97 | 0.97 | 83 | 1010.9 |
| 20260508005503 | 58 | 275 | 3.0 | 12.0 | 0.00 | 0.97 | 0.97 | 83 | 1010.6 |
| 20260508005004 | 59 | 360 | 2.0 | 12.0 | 0.00 | 0.97 | 0.97 | 84 | 1010.5 |
| 20260508004509 | 59 | 290 | 2.0 | 8.0 | 0.00 | 0.97 | 0.97 | 84 | 1010.4 |
| 20260508004003 | 59 | 313 | 2.0 | 8.0 | 0.00 | 0.97 | 0.97 | 83 | 1010.9 |
| 20260508003502 | 59 | 5 | 2.0 | 8.0 | 0.00 | 0.97 | 0.97 | 83 | 1010.6 |
| 20260508002506 | 60 | 267 | 0.0 | 7.0 | 0.00 | 0.97 | 0.97 | 83 | 1010.0 |
| 20260508002008 | 60 | 324 | 2.0 | 8.0 | 0.00 | 0.97 | 0.97 | 82 | 1009.9 |
| 20260508001519 | 60 | 333 | 3.0 | 13.0 | 0.00 | 0.97 | 0.97 | 82 | 1009.7 |
| 20260508001004 | 61 | 282 | 2.0 | 13.0 | 0.00 | 0.97 | 0.97 | 82 | 1010.0 |
| 20260508000508 | 61 | 308 | 1.0 | 6.0 | 0.00 | 0.97 | 0.97 | 82 | 1009.8 |
| 20260508000022 | 61 | 51 | 1.0 | 8.0 | 0.00 | 0.97 | 0.97 | 82 | 1009.7 |
| 20260507235513 | 62 | 304 | 2.0 | 12.0 | 0.00 | 0.97 | 0.97 | 82 | 1009.6 |
| 20260507235009 | 62 | 9 | 2.0 | 12.0 | 0.00 | 0.97 | 0.97 | 82 | 1009.4 |
| 20260507234506 | 62 | 290 | 2.0 | 12.0 | 0.00 | 0.97 | 0.97 | 82 | 1009.3 |
| 20260507234003 | 63 | 333 | 2.0 | 8.0 | 0.00 | 0.97 | 0.97 | 81 | 1009.0 |
| 20260507233504 | 63 | 346 | 2.0 | 8.0 | 0.00 | 0.97 | 0.97 | 81 | 1008.9 |
| 20260507232505 | 64 | 229 | 2.0 | 9.0 | 0.00 | 0.97 | 0.97 | 80 | 1008.6 |
| 20260507232005 | 64 | 12 | 4.0 | 9.0 | 0.00 | 0.97 | 0.97 | 80 | 1008.7 |
| 20260507231004 | 66 | 286 | 3.0 | 9.0 | 0.00 | 0.97 | 0.97 | 79 | 1008.6 |
| 20260507230507 | 66 | 327 | 4.0 | 10.0 | 0.00 | 0.97 | 0.97 | 77 | 1008.5 |
| 20260507230020 | 67 | 320 | 1.0 | 10.0 | 0.00 | 0.97 | 0.97 | 77 | 1008.1 |
| 20260507225507 | 68 | 60 | 2.0 | 7.0 | 0.00 | 0.97 | 0.97 | 77 | 1007.9 |
| 20260507225008 | 69 | 351 | 1.0 | 10.0 | 0.00 | 0.97 | 0.97 | 76 | 1007.9 |
| 20260507224525 | 69 | 334 | 3.0 | 10.0 | 0.00 | 0.97 | 0.97 | 75 | 1007.9 |
| 20260507224007 | 70 | 44 | 1.0 | 8.0 | 0.00 | 0.97 | 0.97 | 75 | 1008.1 |
| 20260507223506 | 71 | 12 | 2.0 | 8.0 | 0.00 | 0.97 | 0.97 | 75 | 1008.0 |
| 20260507222501 | 73 | 54 | 3.0 | 10.0 | 0.00 | 0.97 | 0.97 | 74 | 1007.5 |
| 20260507222003 | 74 | 292 | 3.0 | 10.0 | 0.00 | 0.97 | 0.97 | 75 | 1007.7 |
| 20260507221005 | 75 | 13 | 0.0 | 2.0 | 0.00 | 0.97 | 0.97 | 78 | 1007.3 |
| 20260507220504 | 75 | 60 | 0.0 | 2.0 | 0.00 | 0.97 | 0.97 | 78 | 1007.3 |
| 20260507215507 | 75 | 316 | 0.0 | 2.0 | 0.00 | 0.97 | 0.97 | 78 | 1007.3 |
| 20260507215007 | 75 | 300 | 0.0 | 2.0 | 0.00 | 0.97 | 0.97 | 79 | 1007.3 |
| 20260507214525 | 75 | 227 | 0.0 | 2.0 | 0.00 | 0.97 | 0.97 | 79 | 1007.2 |
| 20260507214009 | 75 | 252 | 0.0 | 2.0 | 0.00 | 0.97 | 0.97 | 80 | 1007.3 |
| 20260507213508 | 75 | 59 | 0.0 | 2.0 | 0.00 | 0.97 | 0.97 | 81 | 1007.3 |
| 20260507213024 | 75 | 344 | 0.0 | 2.0 | 0.00 | 0.97 | 0.97 | 81 | 1007.3 |
| 20260507212511 | 75 | 215 | 0.0 | 2.0 | 0.00 | 0.97 | 0.97 | 81 | 1007.5 |
| 20260507212003 | 75 | 248 | 0.0 | 2.0 | 0.00 | 0.97 | 0.97 | 80 | 1007.4 |
| 20260507211003 | 75 | 273 | 0.0 | 3.0 | 0.00 | 0.97 | 0.97 | 81 | 1007.4 |
| 20260507210505 | 75 | 284 | 0.0 | 3.0 | 0.00 | 0.97 | 0.97 | 82 | 1007.4 |
| 20260507210017 | 75 | 15 | 0.0 | 2.0 | 0.00 | 0.97 | 0.97 | 81 | 1007.2 |
| 20260507205508 | 74 | 273 | 0.0 | 2.0 | 0.00 | 0.97 | 0.97 | 81 | 1007.3 |
| 20260507205007 | 74 | 254 | 1.0 | 2.0 | 0.00 | 0.97 | 0.97 | 82 | 1007.2 |
| 20260507204006 | 74 | 306 | 0.0 | 4.0 | 0.00 | 0.97 | 0.97 | 85 | 1007.0 |
| 20260507203507 | 74 | 292 | 1.0 | 4.0 | 0.00 | 0.97 | 0.97 | 85 | 1007.2 |
| 20260507203024 | 73 | 285 | 0.0 | 2.0 | 0.00 | 0.97 | 0.97 | 85 | 1007.2 |
| 20260507202509 | 73 | 5 | 0.0 | 2.0 | 0.00 | 0.97 | 0.97 | 86 | 1007.3 |
| 20260507202010 | 73 | 299 | 0.0 | 2.0 | 0.00 | 0.97 | 0.97 | 87 | 1007.3 |
| 20260507201525 | 73 | 207 | 0.0 | 3.0 | 0.00 | 0.97 | 0.97 | 88 | 1007.4 |
| 20260507201005 | 73 | 352 | 0.0 | 2.0 | 0.00 | 0.97 | 0.97 | 88 | 1007.3 |
| 20260507200503 | 73 | 313 | 0.0 | 2.0 | 0.00 | 0.97 | 0.97 | 89 | 1007.4 |
| 20260507200014 | 72 | 180 | 1.0 | 2.0 | 0.00 | 0.97 | 0.97 | 89 | 1007.3 |
| 20260507195503 | 72 | 304 | 0.0 | 2.0 | 0.00 | 0.97 | 0.97 | 90 | 1007.3 |
| 20260507195007 | 72 | 264 | 0.0 | 2.0 | 0.00 | 0.97 | 0.97 | 91 | 1007.2 |
| 20260507194520 | 72 | 13 | 0.0 | 2.0 | 0.00 | 0.97 | 0.97 | 91 | 1007.2 |
| 20260507194006 | 72 | 235 | 0.0 | 2.0 | 0.00 | 0.97 | 0.97 | 91 | 1007.3 |
| 20260507193509 | 71 | 184 | 0.0 | 3.0 | 0.00 | 0.97 | 0.97 | 91 | 1007.1 |
| 20260507192508 | 71 | 241 | 1.0 | 2.0 | 0.00 | 0.97 | 0.97 | 91 | 1007.1 |
| 20260507192008 | 71 | 248 | 0.0 | 2.0 | 0.00 | 0.97 | 0.97 | 91 | 1007.4 |
| 20260507191526 | 71 | 246 | 0.0 | 2.0 | 0.00 | 0.97 | 0.97 | 91 | 1007.6 |
| 20260507191010 | 71 | 241 | 0.0 | 3.0 | 0.00 | 0.97 | 0.97 | 91 | 1008.2 |
| 20260507190511 | 70 | 235 | 1.0 | 4.0 | 0.00 | 0.97 | 0.97 | 91 | 1008.3 |
| 20260507190026 | 70 | 233 | 1.0 | 4.0 | 0.00 | 0.97 | 0.97 | 91 | 1008.5 |
| 20260507185503 | 70 | 240 | 1.0 | 5.0 | 0.00 | 0.97 | 0.97 | 91 | 1008.2 |
| 20260507185003 | 70 | 179 | 2.0 | 5.0 | 0.00 | 0.97 | 0.97 | 91 | 1008.1 |
| 20260507184007 | 70 | 230 | 0.0 | 3.0 | 0.00 | 0.97 | 0.97 | 91 | 1008.3 |
| 20260507183506 | 70 | 217 | 1.0 | 3.0 | 0.00 | 0.97 | 0.97 | 91 | 1008.5 |
| 20260507182508 | 70 | 225 | 2.0 | 6.0 | 0.00 | 0.97 | 0.97 | 91 | 1008.5 |
| 20260507182011 | 70 | 273 | 2.0 | 6.0 | 0.00 | 0.97 | 0.97 | 91 | 1008.4 |
| 20260507181523 | 70 | 232 | 3.0 | 6.0 | 0.00 | 0.97 | 0.97 | 92 | 1008.4 |
| 20260507181010 | 70 | 233 | 2.0 | 5.0 | 0.00 | 0.97 | 0.97 | 92 | 1008.2 |
| 20260507180508 | 70 | 215 | 3.0 | 5.0 | 0.00 | 0.97 | 0.97 | 93 | 1008.1 |
| 20260507180023 | 70 | 252 | 2.0 | 5.0 | 0.00 | 0.97 | 0.97 | 93 | 1007.8 |
| 20260507175508 | 70 | 218 | 1.0 | 3.0 | 0.00 | 0.97 | 0.97 | 93 | 1007.8 |
| 20260507175009 | 70 | 268 | 2.0 | 8.0 | 0.00 | 0.97 | 0.97 | 93 | 1008.1 |
| 20260507174004 | 70 | 252 | 2.0 | 7.0 | 0.01 | 0.97 | 0.97 | 94 | 1007.9 |
| 20260507173503 | 70 | 244 | 1.0 | 7.0 | 0.02 | 0.97 | 0.97 | 95 | 1007.9 |
| 20260507172507 | 69 | 239 | 2.0 | 4.0 | 0.05 | 0.97 | 0.97 | 94 | 1008.3 |
| 20260507172007 | 69 | 181 | 1.0 | 4.0 | 0.07 | 0.97 | 0.97 | 94 | 1008.3 |
| 20260507171522 | 69 | 187 | 1.0 | 6.0 | 0.09 | 0.97 | 0.97 | 94 | 1008.5 |
| 20260507171007 | 69 | 184 | 2.0 | 6.0 | 0.11 | 0.97 | 0.97 | 94 | 1008.5 |
| 20260507170511 | 69 | 162 | 1.0 | 5.0 | 0.14 | 0.97 | 0.97 | 94 | 1008.5 |
| 20260507170024 | 68 | 162 | 1.0 | 9.0 | 0.16 | 0.97 | 0.97 | 94 | 1008.6 |
| 20260507165509 | 68 | 181 | 2.0 | 6.0 | 0.18 | 0.97 | 0.97 | 94 | 1008.6 |
| 20260507165010 | 68 | 127 | 1.0 | 2.0 | 0.20 | 0.97 | 0.97 | 94 | 1008.9 |
| 20260507164526 | 68 | 165 | 0.0 | 2.0 | 0.21 | 0.96 | 0.96 | 94 | 1009.1 |
| 20260507164012 | 67 | 188 | 0.0 | 4.0 | 0.22 | 0.96 | 0.96 | 93 | 1009.4 |
| 20260507163508 | 68 | 236 | 0.0 | 4.0 | 0.22 | 0.95 | 0.95 | 93 | 1009.6 |
| 20260507162507 | 67 | 138 | 0.0 | 2.0 | 0.21 | 0.92 | 0.92 | 93 | 1009.6 |
| 20260507162008 | 67 | 242 | 0.0 | 2.0 | 0.20 | 0.90 | 0.90 | 93 | 1010.0 |
| 20260507161523 | 67 | 236 | 1.0 | 2.0 | 0.19 | 0.88 | 0.88 | 93 | 1010.2 |
| 20260507161006 | 68 | 250 | 1.0 | 2.0 | 0.18 | 0.86 | 0.86 | 93 | 1010.3 |
| 20260507160508 | 67 | 230 | 1.0 | 4.0 | 0.19 | 0.83 | 0.83 | 93 | 1010.4 |
| 20260507155510 | 68 | 227 | 1.0 | 3.0 | 0.22 | 0.79 | 0.79 | 93 | 1010.5 |
| 20260507155007 | 68 | 256 | 1.0 | 2.0 | 0.23 | 0.77 | 0.77 | 93 | 1010.5 |
| 20260507154524 | 68 | 257 | 0.0 | 2.0 | 0.24 | 0.75 | 0.75 | 93 | 1010.4 |
| 20260507154011 | 68 | 257 | 0.0 | 3.0 | 0.26 | 0.74 | 0.74 | 93 | 1010.4 |
| 20260507153510 | 68 | 246 | 1.0 | 3.0 | 0.28 | 0.73 | 0.73 | 93 | 1010.2 |
| 20260507153025 | 68 | 248 | 1.0 | 3.0 | 0.30 | 0.72 | 0.72 | 93 | 1010.1 |
| 20260507152512 | 68 | 223 | 1.0 | 2.0 | 0.31 | 0.71 | 0.71 | 93 | 1010.0 |
| 20260507152007 | 68 | 244 | 0.0 | 2.0 | 0.32 | 0.70 | 0.70 | 93 | 1010.0 |
| 20260507151007 | 68 | 233 | 1.0 | 2.0 | 0.33 | 0.68 | 0.68 | 93 | 1010.0 |
| 20260507150511 | 68 | 236 | 0.0 | 2.0 | 0.29 | 0.64 | 0.64 | 93 | 1010.0 |
| 20260507145513 | 68 | 205 | 0.0 | 2.0 | 0.23 | 0.57 | 0.57 | 93 | 1010.1 |
| 20260507145007 | 68 | 240 | 0.0 | 2.0 | 0.20 | 0.54 | 0.54 | 93 | 1010.2 |
| 20260507144536 | 68 | 238 | 0.0 | 2.0 | 0.17 | 0.51 | 0.51 | 93 | 1010.3 |
| 20260507144009 | 68 | 254 | 0.0 | 2.0 | 0.14 | 0.48 | 0.48 | 93 | 1010.5 |
| 20260507143506 | 68 | 203 | 0.0 | 2.0 | 0.11 | 0.45 | 0.45 | 93 | 1010.5 |
| 20260507143026 | 68 | 134 | 0.0 | 2.0 | 0.08 | 0.42 | 0.42 | 93 | 1010.6 |
| 20260507142509 | 68 | 209 | 0.0 | 2.0 | 0.06 | 0.40 | 0.40 | 93 | 1010.7 |
| 20260507142019 | 68 | 185 | 0.0 | 1.0 | 0.04 | 0.38 | 0.38 | 93 | 1010.6 |
| 20260507141528 | 68 | 225 | 0.0 | 2.0 | 0.03 | 0.37 | 0.37 | 93 | 1010.6 |
| 20260507141006 | 68 | 238 | 0.0 | 2.0 | 0.01 | 0.35 | 0.35 | 93 | 1010.4 |
| 20260507140508 | 68 | 245 | 0.0 | 2.0 | 0.01 | 0.35 | 0.35 | 93 | 1010.2 |
| 20260507140019 | 68 | 284 | 0.0 | 3.0 | 0.00 | 0.34 | 0.34 | 93 | 1010.1 |
| 20260507135508 | 68 | 244 | 0.0 | 3.0 | 0.00 | 0.34 | 0.34 | 93 | 1010.1 |
| 20260507135003 | 68 | 235 | 1.0 | 4.0 | 0.00 | 0.34 | 0.34 | 93 | 1009.9 |
| 20260507134007 | 68 | 232 | 0.0 | 3.0 | 0.00 | 0.34 | 0.34 | 93 | 1009.8 |
| 20260507133504 | 68 | 244 | 1.0 | 3.0 | 0.00 | 0.34 | 0.34 | 93 | 1009.8 |
| 20260507132504 | 68 | 239 | 0.0 | 2.0 | 0.00 | 0.34 | 0.34 | 93 | 1009.9 |
| 20260507132005 | 68 | 230 | 0.0 | 2.0 | 0.00 | 0.34 | 0.34 | 93 | 1010.1 |
| 20260507131009 | 68 | 193 | 0.0 | 2.0 | 0.00 | 0.34 | 0.34 | 93 | 1009.7 |
| 20260507130508 | 68 | 242 | 1.0 | 2.0 | 0.01 | 0.34 | 0.34 | 93 | 1009.6 |
| 20260507130018 | 68 | 213 | 1.0 | 2.0 | 0.01 | 0.34 | 0.34 | 93 | 1009.6 |
| 20260507125508 | 68 | 181 | 0.0 | 3.0 | 0.02 | 0.34 | 0.34 | 93 | 1009.7 |
| 20260507125008 | 68 | 190 | 0.0 | 3.0 | 0.02 | 0.34 | 0.34 | 93 | 1009.7 |
| 20260507124525 | 68 | 231 | 1.0 | 2.0 | 0.03 | 0.34 | 0.34 | 93 | 1009.9 |
| 20260507124003 | 68 | 229 | 1.0 | 2.0 | 0.03 | 0.34 | 0.34 | 93 | 1009.9 |
| 20260507123503 | 68 | 184 | 0.0 | 2.0 | 0.03 | 0.34 | 0.34 | 93 | 1009.8 |
| 20260507122504 | 67 | 206 | 1.0 | 6.0 | 0.04 | 0.34 | 0.34 | 93 | 1010.0 |
| 20260507122006 | 67 | 238 | 1.0 | 6.0 | 0.05 | 0.34 | 0.34 | 93 | 1010.1 |
| 20260507121007 | 67 | 150 | 1.0 | 6.0 | 0.06 | 0.34 | 0.34 | 93 | 1010.8 |
| 20260507120505 | 67 | 268 | 1.0 | 6.0 | 0.06 | 0.33 | 0.33 | 93 | 1011.0 |
| 20260507120019 | 67 | 203 | 2.0 | 7.0 | 0.06 | 0.33 | 0.33 | 93 | 1010.6 |
| 20260507115506 | 67 | 153 | 2.0 | 9.0 | 0.06 | 0.32 | 0.32 | 93 | 1010.6 |
| 20260507115010 | 67 | 195 | 4.0 | 9.0 | 0.06 | 0.32 | 0.32 | 93 | 1010.7 |
| 20260507114521 | 67 | 165 | 3.0 | 7.0 | 0.05 | 0.31 | 0.31 | 93 | 1010.9 |
| 20260507114008 | 67 | 182 | 3.0 | 9.0 | 0.06 | 0.31 | 0.31 | 93 | 1011.0 |
| 20260507113508 | 67 | 191 | 4.0 | 10.0 | 0.07 | 0.31 | 0.31 | 93 | 1011.1 |
| 20260507113023 | 67 | 221 | 4.0 | 11.0 | 0.07 | 0.30 | 0.30 | 93 | 1011.1 |
| 20260507112506 | 67 | 193 | 2.0 | 12.0 | 0.07 | 0.30 | 0.30 | 92 | 1011.1 |
| 20260507112004 | 68 | 226 | 4.0 | 12.0 | 0.08 | 0.29 | 0.29 | 92 | 1011.2 |
| 20260507111004 | 67 | 252 | 3.0 | 14.0 | 0.12 | 0.28 | 0.28 | 92 | 1011.3 |
| 20260507110503 | 67 | 165 | 2.0 | 14.0 | 0.14 | 0.27 | 0.27 | 92 | 1011.3 |
| 20260507110018 | 67 | 221 | 4.0 | 9.0 | 0.16 | 0.27 | 0.27 | 92 | 1011.4 |
| 20260507105505 | 67 | 151 | 2.0 | 6.0 | 0.16 | 0.26 | 0.26 | 92 | 1011.3 |
| 20260507105006 | 67 | 163 | 2.0 | 5.0 | 0.17 | 0.26 | 0.26 | 92 | 1011.4 |
| 20260507104523 | 67 | 161 | 1.0 | 8.0 | 0.18 | 0.26 | 0.26 | 92 | 1011.5 |
| 20260507104009 | 67 | 232 | 2.0 | 11.0 | 0.17 | 0.25 | 0.25 | 92 | 1011.5 |
| 20260507103508 | 67 | 186 | 2.0 | 11.0 | 0.16 | 0.24 | 0.24 | 92 | 1011.6 |
| 20260507103025 | 67 | 207 | 2.0 | 6.0 | 0.15 | 0.23 | 0.23 | 91 | 1011.6 |
| 20260507102510 | 67 | 151 | 3.0 | 6.0 | 0.16 | 0.23 | 0.23 | 91 | 1011.6 |
| 20260507102011 | 67 | 175 | 2.0 | 6.0 | 0.14 | 0.21 | 0.21 | 91 | 1011.5 |
| 20260507101510 | 67 | 179 | 2.0 | 5.0 | 0.12 | 0.19 | 0.19 | 91 | 1011.7 |
| 20260507101004 | 67 | 169 | 1.0 | 2.0 | 0.09 | 0.16 | 0.16 | 91 | 1011.6 |
| 20260507100504 | 67 | 187 | 0.0 | 2.0 | 0.06 | 0.13 | 0.13 | 90 | 1011.8 |
| 20260507100019 | 68 | 180 | 0.0 | 2.0 | 0.04 | 0.11 | 0.11 | 90 | 1011.6 |
| 20260507095505 | 68 | 163 | 1.0 | 3.0 | 0.03 | 0.10 | 0.10 | 90 | 1011.5 |
| 20260507095008 | 68 | 180 | 0.0 | 3.0 | 0.03 | 0.09 | 0.09 | 90 | 1011.4 |
| 20260507094524 | 68 | 167 | 0.0 | 3.0 | 0.02 | 0.08 | 0.08 | 90 | 1011.5 |
| 20260507094007 | 68 | 184 | 0.0 | 2.0 | 0.03 | 0.08 | 0.08 | 90 | 1011.5 |
| 20260507093507 | 68 | 164 | 0.0 | 2.0 | 0.04 | 0.08 | 0.08 | 90 | 1011.5 |
| 20260507093032 | 68 | 163 | 0.0 | 2.0 | 0.06 | 0.08 | 0.08 | 90 | 1011.4 |
| 20260507092508 | 68 | 160 | 0.0 | 2.0 | 0.05 | 0.07 | 0.07 | 90 | 1011.3 |
| 20260507092010 | 68 | 222 | 0.0 | 2.0 | 0.05 | 0.07 | 0.07 | 90 | 1011.4 |
| 20260507091530 | 68 | 151 | 0.0 | 2.0 | 0.05 | 0.07 | 0.07 | 89 | 1011.5 |
| 20260507091014 | 68 | 159 | 0.0 | 2.0 | 0.05 | 0.07 | 0.07 | 89 | 1011.5 |
| 20260507090508 | 68 | 135 | 0.0 | 2.0 | 0.05 | 0.07 | 0.07 | 89 | 1011.6 |
| 20260507090017 | 68 | 133 | 0.0 | 2.0 | 0.05 | 0.07 | 0.07 | 89 | 1011.6 |
| 20260507085505 | 68 | 133 | 0.0 | 2.0 | 0.05 | 0.07 | 0.07 | 89 | 1011.6 |
| 20260507085006 | 68 | 134 | 0.0 | 1.0 | 0.04 | 0.06 | 0.06 | 88 | 1011.8 |
| 20260507084523 | 68 | 213 | 0.0 | 0.0 | 0.04 | 0.06 | 0.06 | 88 | 1012.0 |
| 20260507084007 | 68 | 213 | 0.0 | 2.0 | 0.03 | 0.05 | 0.05 | 88 | 1012.0 |
| 20260507083506 | 68 | 213 | 0.0 | 2.0 | 0.02 | 0.04 | 0.04 | 88 | 1012.0 |
| 20260507083023 | 68 | 211 | 0.0 | 2.0 | 0.00 | 0.02 | 0.02 | 88 | 1012.3 |
| 20260507082508 | 68 | 212 | 0.0 | 2.0 | 0.00 | 0.02 | 0.02 | 87 | 1012.2 |
| 20260507082010 | 68 | 174 | 0.0 | 0.0 | 0.01 | 0.02 | 0.02 | 87 | 1012.2 |
| 20260507081526 | 68 | 174 | 0.0 | 0.0 | 0.01 | 0.02 | 0.02 | 87 | 1012.3 |
| 20260507081006 | 68 | 174 | 0.0 | 0.0 | 0.01 | 0.02 | 0.02 | 87 | 1012.1 |
| 20260507080511 | 68 | 174 | 0.0 | 0.0 | 0.01 | 0.02 | 0.02 | 87 | 1011.7 |
| 20260507080028 | 68 | 174 | 0.0 | 2.0 | 0.01 | 0.02 | 0.02 | 87 | 1011.4 |
| 20260507075508 | 68 | 173 | 0.0 | 3.0 | 0.01 | 0.02 | 0.02 | 87 | 1011.4 |
| 20260507075004 | 68 | 167 | 0.0 | 3.0 | 0.01 | 0.02 | 0.02 | 86 | 1011.4 |
| 20260507074515 | 68 | 166 | 0.0 | 0.0 | 0.01 | 0.02 | 0.02 | 86 | 1011.4 |
| 20260507074007 | 68 | 166 | 0.0 | 0.0 | 0.01 | 0.02 | 0.02 | 86 | 1011.3 |
| 20260507073507 | 68 | 167 | 0.0 | 1.0 | 0.01 | 0.02 | 0.02 | 86 | 1011.4 |
| 20260507073019 | 68 | 167 | 0.0 | 1.0 | 0.01 | 0.02 | 0.02 | 86 | 1011.7 |
| 20260507072506 | 69 | 211 | 0.0 | 0.0 | 0.01 | 0.02 | 0.02 | 86 | 1011.7 |
| 20260507072008 | 69 | 210 | 0.0 | 0.0 | 0.00 | 0.01 | 0.01 | 86 | 1011.6 |
| 20260507071523 | 69 | 210 | 0.0 | 0.0 | 0.00 | 0.01 | 0.01 | 86 | 1011.6 |
| 20260507071010 | 69 | 210 | 0.0 | 0.0 | 0.00 | 0.01 | 0.01 | 86 | 1011.8 |
| 20260507070510 | 69 | 211 | 0.0 | 0.0 | 0.00 | 0.01 | 0.01 | 86 | 1011.8 |
| 20260507070026 | 69 | 210 | 0.0 | 2.0 | 0.00 | 0.01 | 0.01 | 85 | 1011.9 |
| 20260507065511 | 69 | 211 | 0.0 | 2.0 | 0.00 | 0.01 | 0.01 | 85 | 1011.8 |
| 20260507065010 | 69 | 173 | 0.0 | 2.0 | 0.00 | 0.01 | 0.01 | 85 | 1011.5 |
| 20260507064525 | 69 | 180 | 0.0 | 2.0 | 0.00 | 0.01 | 0.01 | 85 | 1011.4 |
| 20260507064009 | 69 | 184 | 0.0 | 2.0 | 0.00 | 0.01 | 0.01 | 84 | 1011.7 |
| 20260507063505 | 69 | 198 | 0.0 | 2.0 | 0.00 | 0.01 | 0.01 | 84 | 1011.7 |
| 20260507063019 | 69 | 197 | 0.0 | 2.0 | 0.00 | 0.01 | 0.01 | 84 | 1011.7 |
| 20260507062506 | 69 | 174 | 0.0 | 4.0 | 0.00 | 0.01 | 0.01 | 84 | 1011.7 |
| 20260507062007 | 69 | 211 | 0.0 | 4.0 | 0.00 | 0.01 | 0.01 | 84 | 1011.8 |
| 20260507061521 | 69 | 170 | 0.0 | 2.0 | 0.00 | 0.01 | 0.01 | 84 | 1012.0 |
| 20260507061010 | 69 | 186 | 1.0 | 3.0 | 0.00 | 0.01 | 0.01 | 83 | 1011.9 |
| 20260507060507 | 70 | 221 | 1.0 | 3.0 | 0.00 | 0.01 | 0.01 | 83 | 1011.8 |
| 20260507060033 | 70 | 140 | 1.0 | 3.0 | 0.00 | 0.01 | 0.01 | 82 | 1012.1 |
| 20260507055517 | 70 | 226 | 1.0 | 2.0 | 0.00 | 0.01 | 0.01 | 82 | 1012.1 |
| 20260507055008 | 70 | 164 | 1.0 | 2.0 | 0.00 | 0.01 | 0.01 | 82 | 1012.4 |
| 20260507054536 | 70 | 184 | 1.0 | 2.0 | 0.00 | 0.01 | 0.01 | 81 | 1012.3 |
| 20260507054007 | 70 | 215 | 1.0 | 2.0 | 0.01 | 0.01 | 0.01 | 81 | 1012.4 |
| 20260507053513 | 70 | 161 | 1.0 | 3.0 | 0.01 | 0.01 | 0.01 | 81 | 1012.4 |
| 20260507053026 | 70 | 229 | 0.0 | 3.0 | 0.01 | 0.01 | 0.01 | 80 | 1012.7 |
| 20260507052506 | 70 | 182 | 1.0 | 6.0 | 0.01 | 0.01 | 0.01 | 80 | 1012.4 |
| 20260507052010 | 71 | 228 | 1.0 | 6.0 | 0.01 | 0.01 | 0.01 | 80 | 1012.6 |
| 20260507051008 | 71 | 246 | 1.0 | 5.0 | 0.01 | 0.01 | 0.01 | 79 | 1013.2 |
| 20260507050505 | 72 | 174 | 1.0 | 2.0 | 0.01 | 0.01 | 0.01 | 78 | 1013.3 |
| 20260507050024 | 72 | 222 | 1.0 | 3.0 | 0.01 | 0.01 | 0.01 | 78 | 1013.1 |
| 20260507045509 | 72 | 205 | 0.0 | 3.0 | 0.01 | 0.01 | 0.01 | 77 | 1013.2 |
| 20260507045009 | 73 | 164 | 0.0 | 2.0 | 0.01 | 0.01 | 0.01 | 76 | 1013.4 |
| 20260507044544 | 73 | 259 | 0.0 | 2.0 | 0.01 | 0.01 | 0.01 | 76 | 1013.8 |
| 20260507044010 | 73 | 259 | 0.0 | 2.0 | 0.00 | 0.00 | 0.00 | 76 | 1013.7 |
| 20260507043510 | 73 | 259 | 0.0 | 3.0 | 0.00 | 0.00 | 0.00 | 74 | 1013.8 |
| 20260507043025 | 73 | 250 | 1.0 | 5.0 | 0.00 | 0.00 | 0.00 | 74 | 1013.7 |
| 20260507042511 | 73 | 240 | 1.0 | 5.0 | 0.00 | 0.00 | 0.00 | 72 | 1013.5 |
| 20260507042010 | 73 | 166 | 2.0 | 4.0 | 0.00 | 0.00 | 0.00 | 71 | 1013.3 |
| 20260507041528 | 73 | 183 | 2.0 | 4.0 | 0.00 | 0.00 | 0.00 | 71 | 1013.2 |
| 20260507041002 | 73 | 212 | 1.0 | 4.0 | 0.00 | 0.00 | 0.00 | 71 | 1013.2 |
| 20260507040504 | 73 | 202 | 1.0 | 4.0 | 0.00 | 0.00 | 0.00 | 70 | 1013.0 |
| 20260507040007 | 73 | 178 | 1.0 | 4.0 | 0.00 | 0.00 | 0.00 | 70 | 1012.9 |
| 20260507035504 | 73 | 175 | 1.0 | 4.0 | 0.00 | 0.00 | 0.00 | 70 | 1012.9 |
| 20260507035003 | 74 | 160 | 1.0 | 4.0 | 0.00 | 0.00 | 0.00 | 70 | 1012.9 |
| 20260507034003 | 74 | 184 | 1.0 | 3.0 | 0.00 | 0.00 | 0.00 | 70 | 1012.8 |
| 20260507033502 | 74 | 200 | 1.0 | 3.0 | 0.00 | 0.00 | 0.00 | 70 | 1012.8 |
| 20260507033011 | 74 | 177 | 0.0 | 3.0 | 0.00 | 0.00 | 0.00 | 69 | 1012.8 |
| 20260507032504 | 74 | 180 | 0.0 | 3.0 | 0.00 | 0.00 | 0.00 | 69 | 1012.8 |
| 20260507032006 | 74 | 184 | 1.0 | 5.0 | 0.00 | 0.00 | 0.00 | 69 | 1012.8 |
| 20260507031004 | 74 | 169 | 1.0 | 5.0 | 0.00 | 0.00 | 0.00 | 69 | 1012.8 |
| 20260507030503 | 74 | 216 | 0.0 | 5.0 | 0.00 | 0.00 | 0.00 | 69 | 1012.9 |
| 20260507030004 | 74 | 189 | 2.0 | 5.0 | 0.00 | 0.00 | 0.00 | 69 | 1012.9 |